Weather History for Monroe, MI

Change the Weather History Date:

Wednesday, May 29, 2013

  Actual Average Record
Temperature  
Mean Temperature 76 °F -  
Max Temperature 84 °F 74 °F 92 °F (1941)
Min Temperature 68 °F 53 °F 36 °F (1966)
Cooling Degree Days 12    
Growing Degree Days 26 (Base 50)    
Moisture  
Dew Point 65 °F    
Average Humidity 66    
Maximum Humidity 94    
Minimum Humidity 48    
Precipitation  
Precipitation 0.00 in - - ()
Sea Level Pressure  
Sea Level Pressure 29.93 in    
Wind  
Wind Speed 13 mph (WSW)    
Max Wind Speed 23 mph    
Max Gust Speed 31 mph    
Visibility 10 miles    
Events      
Averages and records for this station are not official NWS values.
T = Trace of Precipitation, MM = Missing Value Source: NWS Daily Summary

Daily Weather History Graph

Daily Weather History Graph

Search for Another Location

Airport:

Trip Planner

Search our weather history database for the weather conditions in past years. The results will help you decide how hot, cold, wet, or windy it might be!

Date:

Astronomy

May. 29, 2013 Rise Set
Actual Time 6:02 AM EDT 9:00 PM EDT
Civil Twilight 5:28 AM EDT 9:33 PM EDT
Nautical Twilight 4:46 AM EDT 10:16 PM EDT
Astronomical Twilight 3:57 AM EDT 11:06 PM EDT
Moon 12:20 AM EDT (5/29) 11:02 AM EDT (5/29)
Length of Visible Light 16h 04m
Length of Day
14h 58m
Waning Gibbous, 73% of the Moon is Illuminated
May 29
Waning Gibbous
May 31
Last Quarter
Jun 8
New
Jun 16
First Quarter
Jun 23
Full

Hourly Weather History & Observations

Time (EDT) Temp. Heat Index Dew Point Humidity Pressure Visibility Wind Dir Wind Speed Gust Speed Precip Events Conditions
12:15 AM 77.0 °F - 64.4 °F 65% 29.86 in 10.0 mi SW 12.7 mph - N/A   Mostly Cloudy
12:36 AM 77.0 °F - 64.4 °F 65% 29.87 in 10.0 mi SSW 16.1 mph 19.6 mph N/A   Mostly Cloudy
12:56 AM 77.0 °F - 64.4 °F 65% 29.87 in 10.0 mi SSW 13.8 mph - N/A   Overcast
1:16 AM 75.2 °F - 64.4 °F 69% 29.86 in 10.0 mi SSW 17.3 mph 26.5 mph N/A   Mostly Cloudy
1:32 AM 77.0 °F - 64.4 °F 65% 29.86 in 10.0 mi SSW 12.7 mph 21.9 mph N/A   Mostly Cloudy
1:52 AM 75.2 °F - 64.4 °F 69% 29.85 in 10.0 mi SSW 17.3 mph 23.0 mph N/A   Mostly Cloudy
2:12 AM 75.2 °F - 64.4 °F 69% 29.84 in 10.0 mi SSW 17.3 mph 23.0 mph N/A   Scattered Clouds
2:32 AM 75.2 °F - 64.4 °F 69% 29.83 in 10.0 mi SSW 12.7 mph 24.2 mph N/A   Clear
2:53 AM 73.4 °F - 64.4 °F 73% 29.84 in 10.0 mi SW 12.7 mph 18.4 mph N/A   Clear
3:13 AM 73.4 °F - 64.4 °F 73% 29.85 in 10.0 mi WSW 13.8 mph 19.6 mph N/A   Scattered Clouds
3:35 AM 73.4 °F - 64.4 °F 73% 29.85 in 10.0 mi WSW 11.5 mph 18.4 mph N/A   Scattered Clouds
3:55 AM 73.4 °F - 64.4 °F 73% 29.85 in 10.0 mi SW 11.5 mph - N/A   Clear
4:15 AM 73.4 °F - 64.4 °F 73% 29.85 in 10.0 mi SW 15.0 mph 24.2 mph N/A   Clear
4:30 AM 73.4 °F - 64.4 °F 73% 29.86 in 10.0 mi SW 18.4 mph 24.2 mph N/A   Clear
4:53 AM 73.4 °F - 64.4 °F 73% 29.87 in 10.0 mi SW 19.6 mph 25.3 mph N/A   Clear
5:13 AM 73.4 °F - 64.4 °F 73% 29.88 in 10.0 mi WSW 18.4 mph 25.3 mph N/A   Clear
5:33 AM 73.4 °F - 64.4 °F 73% 29.88 in 10.0 mi SW 15.0 mph 21.9 mph N/A   Clear
5:53 AM 73.4 °F - 62.6 °F 69% 29.90 in 10.0 mi SW 13.8 mph 20.7 mph N/A   Clear
6:13 AM 73.4 °F - 62.6 °F 69% 29.89 in 10.0 mi SW 10.4 mph 17.3 mph N/A   Clear
6:33 AM 73.4 °F - 62.6 °F 69% 29.90 in 10.0 mi SW 12.7 mph 18.4 mph N/A   Clear
6:53 AM 73.4 °F - 62.6 °F 69% 29.90 in 10.0 mi SW 11.5 mph - N/A   Clear
7:13 AM 73.4 °F - 62.6 °F 69% 29.91 in 10.0 mi SW 15.0 mph 21.9 mph N/A   Clear
7:33 AM 73.4 °F - 62.6 °F 69% 29.91 in 10.0 mi SW 11.5 mph 16.1 mph N/A   Clear
7:54 AM 73.4 °F - 62.6 °F 69% 29.91 in 10.0 mi SW 11.5 mph - N/A   Mostly Cloudy
8:14 AM 75.2 °F - 62.6 °F 65% 29.90 in 10.0 mi SW 12.7 mph 20.7 mph N/A   Mostly Cloudy
8:34 AM 75.2 °F - 62.6 °F 65% 29.91 in 10.0 mi SW 15.0 mph 23.0 mph N/A   Scattered Clouds
8:54 AM 75.2 °F - 64.4 °F 69% 29.92 in 10.0 mi SW 15.0 mph 21.9 mph N/A   Scattered Clouds
9:14 AM 77.0 °F - 62.6 °F 61% 29.93 in 10.0 mi SW 21.9 mph 31.1 mph N/A   Scattered Clouds
9:34 AM 78.8 °F - 64.4 °F 61% 29.93 in 10.0 mi WSW 23.0 mph 27.6 mph N/A   Clear
9:54 AM 77.0 °F - 64.4 °F 65% 29.94 in 10.0 mi WSW 18.4 mph 25.3 mph N/A   Clear
10:14 AM 77.0 °F - 64.4 °F 65% 29.94 in 10.0 mi WSW 18.4 mph 29.9 mph N/A   Clear
10:34 AM 77.0 °F - 64.4 °F 65% 29.93 in 10.0 mi WSW 18.4 mph 23.0 mph N/A   Clear
10:54 AM 78.8 °F - 64.4 °F 61% 29.93 in 10.0 mi WSW 17.3 mph 23.0 mph N/A   Clear
11:15 AM 78.8 °F - 64.4 °F 61% 29.94 in 10.0 mi WSW 16.1 mph 24.2 mph N/A   Clear
11:35 AM 78.8 °F - 64.4 °F 61% 29.94 in 10.0 mi WSW 16.1 mph 25.3 mph N/A   Clear
11:55 AM 80.6 °F 82.3 °F 64.4 °F 58% 29.95 in 10.0 mi WSW 15.0 mph 24.2 mph N/A   Clear
12:15 PM 80.6 °F 82.3 °F 64.4 °F 58% 29.96 in 10.0 mi WSW 20.7 mph 28.8 mph N/A   Clear
12:35 PM 82.4 °F 83.4 °F 62.6 °F 51% 29.97 in 10.0 mi West 18.4 mph 29.9 mph N/A   Clear
12:55 PM 82.4 °F 83.4 °F 62.6 °F 51% 29.98 in 10.0 mi West 20.7 mph 29.9 mph N/A   Clear
1:15 PM 82.4 °F 83.9 °F 64.4 °F 54% 29.98 in 10.0 mi WSW 19.6 mph 26.5 mph N/A   Clear
1:35 PM 82.4 °F 83.4 °F 62.6 °F 51% 29.98 in 10.0 mi WSW 21.9 mph 27.6 mph N/A   Clear
1:55 PM 82.4 °F 83.9 °F 64.4 °F 54% 29.99 in 10.0 mi WSW 17.3 mph 24.2 mph N/A   Clear
2:16 PM 84.2 °F 85.6 °F 64.4 °F 51% 29.99 in 10.0 mi West 17.3 mph 23.0 mph N/A   Clear
2:36 PM 84.2 °F 85.6 °F 64.4 °F 51% 29.98 in 10.0 mi West 15.0 mph 19.6 mph N/A   Clear
2:56 PM 84.2 °F 85.6 °F 64.4 °F 51% 29.98 in 10.0 mi WSW 9.2 mph 19.6 mph N/A   Clear
3:11 PM 84.2 °F 85.6 °F 64.4 °F 51% 29.98 in 10.0 mi WSW 10.4 mph 17.3 mph N/A   Scattered Clouds
3:32 PM 84.2 °F 85.0 °F 62.6 °F 48% 29.98 in 10.0 mi WSW 16.1 mph 19.6 mph N/A   Scattered Clouds
3:52 PM 84.2 °F 85.6 °F 64.4 °F 51% 29.98 in 10.0 mi WSW 11.5 mph 16.1 mph N/A   Mostly Cloudy
4:12 PM 84.2 °F 86.6 °F 66.2 °F 55% 29.97 in 10.0 mi WSW 10.4 mph 16.1 mph N/A   Mostly Cloudy
4:32 PM 84.2 °F 85.6 °F 64.4 °F 51% 29.97 in 10.0 mi WSW 9.2 mph 21.9 mph N/A   Scattered Clouds
4:52 PM 84.2 °F 85.6 °F 64.4 °F 51% 29.97 in 10.0 mi WSW 15.0 mph - N/A   Scattered Clouds
5:12 PM 84.2 °F 86.6 °F 66.2 °F 55% 29.97 in 10.0 mi WSW 12.7 mph 18.4 mph N/A   Mostly Cloudy
5:32 PM 84.2 °F 86.6 °F 66.2 °F 55% 29.97 in 10.0 mi WSW 11.5 mph - N/A   Scattered Clouds
5:52 PM 82.4 °F 84.6 °F 66.2 °F 58% 29.97 in 10.0 mi WSW 8.1 mph - N/A   Mostly Cloudy
6:12 PM 84.2 °F 86.6 °F 66.2 °F 55% 29.97 in 10.0 mi West 4.6 mph - N/A   Scattered Clouds
6:33 PM 84.2 °F 86.6 °F 66.2 °F 55% 29.97 in 10.0 mi West 9.2 mph - N/A   Clear
6:53 PM 84.2 °F 86.6 °F 66.2 °F 55% 29.97 in 10.0 mi WNW 5.8 mph - N/A   Scattered Clouds
7:13 PM 82.4 °F 84.6 °F 66.2 °F 58% 29.97 in 10.0 mi NW 5.8 mph - N/A   Clear
7:33 PM 82.4 °F 84.6 °F 66.2 °F 58% 29.97 in 10.0 mi Calm Calm - N/A   Clear
7:53 PM 82.4 °F 85.4 °F 68.0 °F 62% 29.96 in 10.0 mi Calm Calm - N/A   Clear
8:13 PM 80.6 °F 83.9 °F 69.8 °F 70% 29.97 in 10.0 mi Calm Calm - N/A   Clear
8:33 PM 78.8 °F - 69.8 °F 74% 29.96 in 10.0 mi Calm Calm - N/A   Clear
8:53 PM 75.2 °F - 68.0 °F 78% 29.97 in 10.0 mi Calm Calm - N/A   Clear
9:13 PM 75.2 °F - 68.0 °F 78% 29.97 in 10.0 mi Calm Calm - N/A   Clear
9:33 PM 73.4 °F - 68.0 °F 83% 29.97 in 10.0 mi Calm Calm - N/A   Clear
9:53 PM 73.4 °F - 69.8 °F 88% 29.98 in 10.0 mi Calm Calm - N/A   Clear
10:14 PM 73.4 °F - 68.0 °F 83% 29.98 in 10.0 mi Calm Calm - N/A   Clear
10:34 PM 71.6 °F - 68.0 °F 88% 29.99 in 10.0 mi Calm Calm - N/A   Clear
10:54 PM 69.8 °F - 66.2 °F 88% 30.00 in 10.0 mi Calm Calm - N/A   Clear
11:14 PM 69.8 °F - 66.2 °F 88% 30.00 in 10.0 mi Calm Calm - N/A   Clear
11:34 PM 69.8 °F - 66.2 °F 88% 30.00 in 7.0 mi Calm Calm - N/A   Clear
11:54 PM 68.0 °F - 66.2 °F 94% 30.00 in 7.0 mi Calm Calm - N/A   Clear